Location: Launois
(49.6535°N, 4.5395°E)
Time: 00:14:36
(UTC+00:00)

CZ-2D R/B - Pass Details

Date: 14 August 2024
Orbit: 790 x 842 km, 98.8° (Epoch: 07 September)

Event Time Altitude Azimuth Distance (km) Brightness Sun altitude
Rises 01:46:39 0° 16° (NNE) 3,334 6.7 -20.8°
Reaches altitude 10° 01:49:00 10° 18° (NNE) 2,406 5.7 -20.6°
Maximum altitude 01:54:19 73° 104° (ESE) 858 2.2 -20.2°
Enters shadow 01:56:45 33° 182° (S) 1,341 2.8 -20.0°
